Time,TemperatureF,DewpointF,PressureIn,WindDirection,WindDirectionDegrees,WindSpeedMPH,WindSpeedGustMPH,Humidity,HourlyPrecipIn,Conditions,Clouds,dailyrainin,SoftwareType,DateUTC
2013-07-10 00:01:00,74.7,69.2,29.98,WSW,240,0.0,0.0,83,0.00,,,0.02,Wunderground v.1.15,2013-07-10 04:01:00,
2013-07-10 00:02:00,74.6,69.1,29.98,WSW,240,0.0,0.0,83,0.00,,,0.00,Wunderground v.1.15,2013-07-10 04:02:00,
2013-07-10 00:04:00,74.6,69.1,29.98,WSW,240,0.0,0.0,83,0.00,,,0.00,Wunderground v.1.15,2013-07-10 04:04:00,
2013-07-10 00:05:00,74.6,69.1,29.98,WSW,240,0.0,0.0,83,0.00,,,0.00,Wunderground v.1.15,2013-07-10 04:05:00,
2013-07-10 00:09:00,74.6,69.1,29.98,WSW,240,0.0,0.0,83,0.00,,,0.00,Wunderground v.1.15,2013-07-10 04:09:00,
2013-07-10 00:11:00,74.6,69.1,29.98,WSW,240,0.0,0.0,83,0.00,,,0.00,Wunderground v.1.15,2013-07-10 04:11:00,
2013-07-10 00:17:00,74.6,69.4,29.98,WSW,240,0.0,0.0,84,0.00,,,0.00,Wunderground v.1.15,2013-07-10 04:17:00,
2013-07-10 00:22:00,74.6,69.4,29.98,WSW,240,0.0,0.0,84,0.00,,,0.00,Wunderground v.1.15,2013-07-10 04:22:00,
2013-07-10 00:28:00,74.7,69.5,29.98,WSW,240,0.0,0.0,84,0.00,,,0.00,Wunderground v.1.15,2013-07-10 04:28:00,
2013-07-10 00:33:00,74.7,69.5,29.98,WSW,240,0.0,0.0,84,0.00,,,0.00,Wunderground v.1.15,2013-07-10 04:33:00,
2013-07-10 00:39:00,74.6,69.4,29.98,WSW,240,0.0,0.0,84,0.00,,,0.00,Wunderground v.1.15,2013-07-10 04:39:00,
2013-07-10 00:44:00,74.6,69.4,29.98,WSW,240,0.0,0.0,84,0.00,,,0.00,Wunderground v.1.15,2013-07-10 04:44:00,
2013-07-10 00:50:00,74.6,69.4,29.98,WSW,240,0.0,0.0,84,0.00,,,0.00,Wunderground v.1.15,2013-07-10 04:50:00,
2013-07-10 00:55:00,74.6,69.4,29.98,WSW,240,0.0,0.0,84,0.00,,,0.00,Wunderground v.1.15,2013-07-10 04:55:00,
2013-07-10 01:00:00,74.6,69.4,29.98,WSW,240,0.0,0.0,84,0.00,,,0.00,Wunderground v.1.15,2013-07-10 05:00:00,
2013-07-10 01:06:00,74.4,69.2,29.98,WSW,240,0.0,0.0,84,0.00,,,0.00,Wunderground v.1.15,2013-07-10 05:06:00,
2013-07-10 01:12:00,74.4,69.2,29.98,WSW,240,0.0,0.0,84,0.00,,,0.00,Wunderground v.1.15,2013-07-10 05:12:00,
2013-07-10 01:17:00,74.4,69.2,29.98,WSW,240,0.0,0.0,84,0.00,,,0.00,Wunderground v.1.15,2013-07-10 05:17:00,
2013-07-10 01:22:00,74.4,69.2,29.98,WSW,240,0.0,0.0,84,0.00,,,0.00,Wunderground v.1.15,2013-07-10 05:22:00,
2013-07-10 01:28:00,74.4,69.6,29.98,WSW,240,0.0,0.0,85,0.00,,,0.00,Wunderground v.1.15,2013-07-10 05:28:00,
2013-07-10 01:33:00,74.4,69.6,29.98,WSW,240,0.0,0.0,85,0.00,,,0.00,Wunderground v.1.15,2013-07-10 05:33:00,
2013-07-10 01:39:00,74.4,69.6,29.98,WSW,240,0.0,0.0,85,0.00,,,0.00,Wunderground v.1.15,2013-07-10 05:39:00,
2013-07-10 01:44:00,74.4,69.6,29.98,WSW,240,0.0,0.0,85,0.00,,,0.00,Wunderground v.1.15,2013-07-10 05:44:00,
2013-07-10 01:50:00,74.4,69.6,29.97,WSW,240,0.0,0.0,85,0.00,,,0.00,Wunderground v.1.15,2013-07-10 05:50:00,
2013-07-10 01:55:00,74.4,69.6,29.97,WSW,240,0.0,0.0,85,0.00,,,0.00,Wunderground v.1.15,2013-07-10 05:55:00,
2013-07-10 02:00:00,74.4,69.9,29.96,WSW,240,0.0,0.0,86,0.00,,,0.00,Wunderground v.1.15,2013-07-10 06:00:00,
2013-07-10 02:05:00,74.6,70.1,29.96,WSW,240,0.0,0.0,86,0.00,,,0.00,Wunderground v.1.15,2013-07-10 06:05:00,
2013-07-10 02:10:00,74.6,70.1,29.96,WSW,240,0.0,0.0,86,0.00,,,0.00,Wunderground v.1.15,2013-07-10 06:10:00,
2013-07-10 02:15:00,74.6,70.1,29.96,WSW,240,0.0,0.0,86,0.00,,,0.00,Wunderground v.1.15,2013-07-10 06:15:00,
2013-07-10 02:20:00,74.6,70.1,29.96,WSW,240,0.0,0.0,86,0.00,,,0.00,Wunderground v.1.15,2013-07-10 06:20:00,
2013-07-10 02:25:00,74.4,69.9,29.96,WSW,240,0.0,0.0,86,0.00,,,0.00,Wunderground v.1.15,2013-07-10 06:25:00,
2013-07-10 02:30:00,74.4,69.9,29.96,WSW,240,0.0,0.0,86,0.00,,,0.00,Wunderground v.1.15,2013-07-10 06:30:00,
2013-07-10 02:35:00,74.4,69.9,29.96,WSW,240,0.0,0.0,86,0.00,,,0.00,Wunderground v.1.15,2013-07-10 06:35:00,
2013-07-10 02:40:00,74.4,69.9,29.96,WSW,240,0.0,0.0,86,0.00,,,0.00,Wunderground v.1.15,2013-07-10 06:40:00,
2013-07-10 02:45:00,74.6,70.1,29.96,WSW,240,0.0,0.0,86,0.00,,,0.00,Wunderground v.1.15,2013-07-10 06:45:00,
2013-07-10 02:50:00,74.6,70.1,29.96,WSW,240,0.0,0.0,86,0.00,,,0.00,Wunderground v.1.15,2013-07-10 06:50:00,
2013-07-10 02:55:00,74.6,70.1,29.96,WSW,240,0.0,0.0,86,0.00,,,0.00,Wunderground v.1.15,2013-07-10 06:55:00,
2013-07-10 03:00:00,74.6,70.1,29.96,WSW,240,0.0,0.0,86,0.00,,,0.00,Wunderground v.1.15,2013-07-10 07:00:00,
2013-07-10 03:05:00,74.6,70.5,29.96,WSW,240,0.0,0.0,87,0.00,,,0.00,Wunderground v.1.15,2013-07-10 07:05:00,
2013-07-10 03:10:00,74.6,70.5,29.96,WSW,240,0.0,0.0,87,0.00,,,0.00,Wunderground v.1.15,2013-07-10 07:10:00,
2013-07-10 03:15:00,74.6,70.5,29.95,WSW,240,0.0,0.0,87,0.00,,,0.00,Wunderground v.1.15,2013-07-10 07:15:00,
2013-07-10 03:20:00,74.6,70.5,29.95,WSW,240,0.0,0.0,87,0.00,,,0.00,Wunderground v.1.15,2013-07-10 07:20:00,
2013-07-10 03:25:00,74.6,70.5,29.95,WSW,240,0.0,0.0,87,0.00,,,0.00,Wunderground v.1.15,2013-07-10 07:25:00,
2013-07-10 03:30:00,74.6,70.5,29.95,WSW,240,0.0,0.0,87,0.00,,,0.00,Wunderground v.1.15,2013-07-10 07:30:00,
2013-07-10 03:35:00,74.6,70.5,29.95,WSW,240,0.0,0.0,87,0.00,,,0.00,Wunderground v.1.15,2013-07-10 07:35:00,
2013-07-10 03:40:00,74.6,70.5,29.95,WSW,240,0.0,0.0,87,0.00,,,0.00,Wunderground v.1.15,2013-07-10 07:40:00,
2013-07-10 03:45:00,74.6,70.5,29.96,WSW,240,0.0,0.0,87,0.00,,,0.00,Wunderground v.1.15,2013-07-10 07:45:00,
2013-07-10 03:50:00,74.6,70.5,29.96,WSW,240,0.0,0.0,87,0.00,,,0.00,Wunderground v.1.15,2013-07-10 07:50:00,
2013-07-10 03:55:00,74.6,70.5,29.96,WSW,240,0.0,0.0,87,0.00,,,0.00,Wunderground v.1.15,2013-07-10 07:55:00,
2013-07-10 04:01:00,74.6,70.5,29.95,WSW,240,0.0,0.0,87,0.00,,,0.00,Wunderground v.1.15,2013-07-10 08:01:00,
2013-07-10 04:06:00,74.6,70.5,29.95,WSW,240,0.0,0.0,87,0.00,,,0.00,Wunderground v.1.15,2013-07-10 08:06:00,
2013-07-10 04:11:00,74.6,70.5,29.95,ENE,64,0.0,0.0,87,0.00,,,0.00,Wunderground v.1.15,2013-07-10 08:11:00,
2013-07-10 04:16:00,74.6,70.5,29.95,ENE,64,0.0,0.0,87,0.00,,,0.00,Wunderground v.1.15,2013-07-10 08:16:00,
2013-07-10 04:21:00,74.6,70.5,29.95,ENE,64,0.0,0.0,87,0.00,,,0.00,Wunderground v.1.15,2013-07-10 08:21:00,
2013-07-10 04:26:00,74.6,70.5,29.95,ENE,64,0.0,0.0,87,0.00,,,0.00,Wunderground v.1.15,2013-07-10 08:26:00,
2013-07-10 04:31:00,74.6,70.5,29.95,ENE,64,0.0,0.0,87,0.00,,,0.00,Wunderground v.1.15,2013-07-10 08:31:00,
2013-07-10 04:36:00,74.6,70.5,29.95,ENE,64,0.0,0.0,87,0.00,,,0.00,Wunderground v.1.15,2013-07-10 08:36:00,
2013-07-10 04:41:00,74.6,70.5,29.95,ENE,64,0.0,0.0,87,0.00,,,0.00,Wunderground v.1.15,2013-07-10 08:41:00,
2013-07-10 04:46:00,74.6,70.5,29.96,ENE,64,0.0,0.0,87,0.00,,,0.00,Wunderground v.1.15,2013-07-10 08:46:00,
2013-07-10 04:51:00,74.6,70.8,29.96,ENE,64,0.0,0.0,88,0.00,,,0.00,Wunderground v.1.15,2013-07-10 08:51:00,
2013-07-10 04:56:00,74.6,70.5,29.96,ENE,64,0.0,0.0,87,0.00,,,0.00,Wunderground v.1.15,2013-07-10 08:56:00,
2013-07-10 05:01:00,74.6,70.8,29.95,ENE,59,0.0,0.0,88,0.00,,,0.00,Wunderground v.1.15,2013-07-10 09:01:00,
2013-07-10 05:06:00,74.6,70.8,29.95,ENE,59,0.0,0.0,88,0.00,,,0.00,Wunderground v.1.15,2013-07-10 09:06:00,
2013-07-10 05:11:00,74.6,70.8,29.95,ENE,59,0.0,0.0,88,0.00,,,0.00,Wunderground v.1.15,2013-07-10 09:11:00,
2013-07-10 05:16:00,74.6,70.8,29.96,ENE,59,0.0,0.0,88,0.00,,,0.00,Wunderground v.1.15,2013-07-10 09:16:00,
2013-07-10 05:21:00,74.4,70.6,29.96,ENE,58,0.0,0.0,88,0.00,,,0.00,Wunderground v.1.15,2013-07-10 09:21:00,
2013-07-10 05:26:00,74.4,70.6,29.96,ENE,59,0.0,0.0,88,0.00,,,0.00,Wunderground v.1.15,2013-07-10 09:26:00,
2013-07-10 05:31:00,74.4,70.6,29.95,ENE,59,0.0,0.0,88,0.00,,,0.00,Wunderground v.1.15,2013-07-10 09:31:00,
2013-07-10 05:36:00,74.4,70.6,29.95,ENE,58,0.0,0.0,88,0.00,,,0.00,Wunderground v.1.15,2013-07-10 09:36:00,
2013-07-10 05:41:00,74.2,70.4,29.95,ENE,59,0.0,0.0,88,0.00,,,0.00,Wunderground v.1.15,2013-07-10 09:41:00,
2013-07-10 05:46:00,74.2,70.4,29.95,ENE,59,0.0,0.0,88,0.00,,,0.00,Wunderground v.1.15,2013-07-10 09:46:00,
2013-07-10 05:51:00,74.2,70.4,29.95,ENE,58,0.0,0.0,88,0.00,,,0.00,Wunderground v.1.15,2013-07-10 09:51:00,
2013-07-10 05:56:00,74.2,70.4,29.95,ENE,59,0.0,0.0,88,0.00,,,0.00,Wunderground v.1.15,2013-07-10 09:56:00,
2013-07-10 06:01:00,74.0,70.2,29.95,ENE,59,0.0,0.0,88,0.00,,,0.00,Wunderground v.1.15,2013-07-10 10:01:00,
2013-07-10 06:06:00,74.0,70.2,29.95,ENE,59,0.0,0.0,88,0.00,,,0.00,Wunderground v.1.15,2013-07-10 10:06:00,
2013-07-10 06:11:00,74.0,70.2,29.95,ENE,59,0.0,0.0,88,0.00,,,0.00,Wunderground v.1.15,2013-07-10 10:11:00,
2013-07-10 06:16:00,74.0,70.2,29.95,ENE,59,0.0,0.0,88,0.00,,,0.00,Wunderground v.1.15,2013-07-10 10:16:00,
2013-07-10 06:21:00,73.9,70.1,29.95,ENE,59,0.0,0.0,88,0.00,,,0.00,Wunderground v.1.15,2013-07-10 10:21:00,
2013-07-10 06:26:00,73.9,70.1,29.95,ENE,59,0.0,0.0,88,0.00,,,0.00,Wunderground v.1.15,2013-07-10 10:26:00,
2013-07-10 06:31:00,73.9,70.1,29.95,ENE,59,0.0,0.0,88,0.00,,,0.00,Wunderground v.1.15,2013-07-10 10:31:00,
2013-07-10 06:36:00,73.9,70.1,29.95,ENE,61,0.0,0.0,88,0.00,,,0.00,Wunderground v.1.15,2013-07-10 10:36:00,
2013-07-10 06:41:00,73.9,70.1,29.95,ENE,61,0.0,0.0,88,0.00,,,0.00,Wunderground v.1.15,2013-07-10 10:41:00,
2013-07-10 06:46:00,73.9,70.1,29.96,ENE,59,0.0,0.0,88,0.00,,,0.00,Wunderground v.1.15,2013-07-10 10:46:00,
2013-07-10 06:51:00,73.7,69.9,29.96,ENE,61,0.0,0.0,88,0.00,,,0.00,Wunderground v.1.15,2013-07-10 10:51:00,
2013-07-10 06:56:00,73.7,69.9,29.96,ENE,61,0.0,0.0,88,0.00,,,0.00,Wunderground v.1.15,2013-07-10 10:56:00,
2013-07-10 07:01:00,73.7,69.9,29.95,ENE,62,0.0,0.0,88,0.00,,,0.00,Wunderground v.1.15,2013-07-10 11:01:00,
2013-07-10 07:06:00,73.9,70.5,29.95,ENE,64,0.0,0.0,89,0.00,,,0.00,Wunderground v.1.15,2013-07-10 11:06:00,
2013-07-10 07:11:00,73.9,70.5,29.95,ENE,64,0.0,0.0,89,0.00,,,0.00,Wunderground v.1.15,2013-07-10 11:11:00,
2013-07-10 07:16:00,74.0,70.6,29.95,ENE,73,0.0,0.0,89,0.00,,,0.00,Wunderground v.1.15,2013-07-10 11:16:00,
2013-07-10 07:21:00,74.2,70.7,29.95,ENE,75,0.0,1.0,89,0.00,,,0.00,Wunderground v.1.15,2013-07-10 11:21:00,
2013-07-10 07:26:00,74.4,70.9,29.95,ENE,75,0.0,1.0,89,0.00,,,0.00,Wunderground v.1.15,2013-07-10 11:26:00,
2013-07-10 07:31:00,74.6,71.1,29.96,ENE,75,0.0,0.0,89,0.00,,,0.00,Wunderground v.1.15,2013-07-10 11:31:00,
2013-07-10 07:36:00,74.7,71.2,29.96,ENE,75,0.0,0.0,89,0.00,,,0.00,Wunderground v.1.15,2013-07-10 11:36:00,
2013-07-10 07:41:00,74.9,71.4,29.96,ENE,75,0.0,0.0,89,0.00,,,0.00,Wunderground v.1.15,2013-07-10 11:41:00,
2013-07-10 07:46:00,75.3,71.8,29.96,ENE,75,0.0,0.0,89,0.00,,,0.00,Wunderground v.1.15,2013-07-10 11:46:00,
2013-07-10 07:51:00,75.8,72.3,29.96,ENE,75,0.0,0.0,89,0.00,,,0.00,Wunderground v.1.15,2013-07-10 11:51:00,
2013-07-10 07:56:00,76.1,72.6,29.96,ENE,75,0.0,0.0,89,0.00,,,0.00,Wunderground v.1.15,2013-07-10 11:56:00,
2013-07-10 08:02:00,76.7,73.2,29.96,ENE,75,0.0,0.0,89,0.00,,,0.00,Wunderground v.1.15,2013-07-10 12:02:00,
2013-07-10 08:07:00,77.0,73.2,29.96,ENE,75,0.0,1.0,88,0.00,,,0.00,Wunderground v.1.15,2013-07-10 12:07:00,
2013-07-10 08:12:00,77.4,73.6,29.96,ENE,69,0.0,0.0,88,0.00,,,0.00,Wunderground v.1.15,2013-07-10 12:12:00,
2013-07-10 08:17:00,77.7,73.9,29.97,ENE,73,0.0,0.0,88,0.00,,,0.00,Wunderground v.1.15,2013-07-10 12:17:00,
2013-07-10 08:22:00,78.1,73.9,29.97,ENE,73,0.0,0.0,87,0.00,,,0.00,Wunderground v.1.15,2013-07-10 12:22:00,
2013-07-10 08:27:00,78.6,74.4,29.97,ENE,73,0.0,0.0,87,0.00,,,0.00,Wunderground v.1.15,2013-07-10 12:27:00,
2013-07-10 08:32:00,79.0,74.5,29.97,ENE,73,0.0,0.0,86,0.00,,,0.00,Wunderground v.1.15,2013-07-10 12:32:00,
2013-07-10 08:37:00,79.4,74.8,29.97,ENE,75,0.0,0.0,86,0.00,,,0.00,Wunderground v.1.15,2013-07-10 12:37:00,
2013-07-10 08:42:00,79.8,75.2,29.97,ESE,123,0.0,0.0,86,0.00,,,0.00,Wunderground v.1.15,2013-07-10 12:42:00,
2013-07-10 08:47:00,79.9,75.0,29.98,ESE,116,0.0,0.0,85,0.00,,,0.00,Wunderground v.1.15,2013-07-10 12:47:00,
2013-07-10 08:52:00,80.1,74.8,29.98,East,80,2.0,5.0,84,0.00,,,0.00,Wunderground v.1.15,2013-07-10 12:52:00,
2013-07-10 08:57:00,80.5,75.2,29.98,East,80,0.0,5.0,84,0.00,,,0.00,Wunderground v.1.15,2013-07-10 12:57:00,
2013-07-10 09:02:00,80.9,75.6,29.98,East,80,0.0,0.0,84,0.00,,,0.00,Wunderground v.1.15,2013-07-10 13:02:00,
2013-07-10 09:07:00,81.2,75.9,29.98,East,79,0.0,1.0,84,0.00,,,0.00,Wunderground v.1.15,2013-07-10 13:07:00,
2013-07-10 09:12:00,81.6,75.9,29.98,SSE,164,0.0,0.0,83,0.00,,,0.00,Wunderground v.1.15,2013-07-10 13:12:00,
2013-07-10 09:17:00,81.8,75.8,29.98,SSE,164,0.0,0.0,82,0.00,,,0.00,Wunderground v.1.15,2013-07-10 13:17:00,
2013-07-10 09:22:00,82.0,75.6,29.98,SSE,164,0.0,0.0,81,0.00,,,0.00,Wunderground v.1.15,2013-07-10 13:22:00,
2013-07-10 09:27:00,82.4,76.0,29.98,SSE,164,0.0,0.0,81,0.00,,,0.00,Wunderground v.1.15,2013-07-10 13:27:00,
2013-07-10 09:32:00,82.6,75.8,29.98,NNW,347,0.0,1.0,80,0.00,,,0.00,Wunderground v.1.15,2013-07-10 13:32:00,
2013-07-10 09:37:00,82.8,76.0,29.98,North,353,0.0,1.0,80,0.00,,,0.00,Wunderground v.1.15,2013-07-10 13:37:00,
2013-07-10 09:42:00,83.0,75.4,29.98,North,353,0.0,0.0,78,0.00,,,0.00,Wunderground v.1.15,2013-07-10 13:42:00,
2013-07-10 09:47:00,83.4,75.8,29.98,North,353,0.0,0.0,78,0.00,,,0.00,Wunderground v.1.15,2013-07-10 13:47:00,
2013-07-10 09:48:00,83.4,75.8,29.98,North,353,0.0,0.0,78,0.00,,,0.00,Wunderground v.1.15,2013-07-10 13:48:00,
2013-07-10 09:53:00,83.6,75.6,29.98,SE,138,0.0,0.0,77,0.00,,,0.00,Wunderground v.1.15,2013-07-10 13:53:00,
2013-07-10 09:58:00,83.8,75.8,29.98,SE,134,0.0,0.0,77,0.00,,,0.00,Wunderground v.1.15,2013-07-10 13:58:00,
2013-07-10 10:03:00,84.1,75.7,29.98,ENE,65,0.0,0.0,76,0.00,,,0.00,Wunderground v.1.15,2013-07-10 14:03:00,
2013-07-10 10:08:00,84.7,76.3,29.98,ENE,65,0.0,0.0,76,0.00,,,0.00,Wunderground v.1.15,2013-07-10 14:08:00,
2013-07-10 10:13:00,84.9,76.1,29.98,SSE,160,0.0,0.0,75,0.00,,,0.00,Wunderground v.1.15,2013-07-10 14:13:00,
2013-07-10 10:18:00,85.3,76.1,29.97,SSE,160,0.0,0.0,74,0.00,,,0.00,Wunderground v.1.15,2013-07-10 14:18:00,
2013-07-10 10:23:00,85.5,75.9,29.97,East,82,5.0,7.0,73,0.00,,,0.00,Wunderground v.1.15,2013-07-10 14:23:00,
2013-07-10 10:28:00,85.5,75.4,29.97,SE,133,0.0,7.0,72,0.00,,,0.00,Wunderground v.1.15,2013-07-10 14:28:00,
2013-07-10 10:33:00,85.9,75.8,29.97,North,0,0.0,0.0,72,0.00,,,0.00,Wunderground v.1.15,2013-07-10 14:33:00,
2013-07-10 10:38:00,86.1,75.2,29.97,ENE,72,0.0,1.0,70,0.00,,,0.00,Wunderground v.1.15,2013-07-10 14:38:00,
2013-07-10 10:43:00,86.5,75.5,29.97,North,0,0.0,0.0,70,0.00,,,0.00,Wunderground v.1.15,2013-07-10 14:43:00,
2013-07-10 10:48:00,87.0,75.2,29.97,North,349,0.0,1.0,68,0.00,,,0.00,Wunderground v.1.15,2013-07-10 14:48:00,
2013-07-10 10:53:00,87.0,74.3,29.97,ENE,71,0.0,0.0,66,0.00,,,0.00,Wunderground v.1.15,2013-07-10 14:53:00,
2013-07-10 10:58:00,86.7,73.5,29.97,SE,138,0.0,2.0,65,0.00,,,0.00,Wunderground v.1.15,2013-07-10 14:58:00,
2013-07-10 11:03:00,87.0,73.3,29.96,North,356,0.0,0.0,64,0.00,,,0.00,Wunderground v.1.15,2013-07-10 15:03:00,
2013-07-10 11:08:00,87.2,73.1,29.96,NNW,333,0.0,0.0,63,0.00,,,0.00,Wunderground v.1.15,2013-07-10 15:08:00,
2013-07-10 11:13:00,87.4,72.8,29.96,ESE,103,0.0,2.0,62,0.00,,,0.00,Wunderground v.1.15,2013-07-10 15:13:00,
2013-07-10 11:18:00,87.8,72.7,29.97,ENE,73,0.0,2.0,61,0.00,,,0.00,Wunderground v.1.15,2013-07-10 15:18:00,
2013-07-10 11:23:00,88.0,72.9,29.97,SSE,160,0.0,1.0,61,0.00,,,0.00,Wunderground v.1.15,2013-07-10 15:23:00,
2013-07-10 11:28:00,88.4,72.7,29.97,NE,48,0.0,1.0,60,0.00,,,0.00,Wunderground v.1.15,2013-07-10 15:28:00,
2013-07-10 11:33:00,88.6,72.4,29.97,ENE,75,0.0,0.0,59,0.00,,,0.00,Wunderground v.1.15,2013-07-10 15:33:00,
2013-07-10 11:38:00,88.8,72.6,29.97,NNE,16,0.0,0.0,59,0.00,,,0.00,Wunderground v.1.15,2013-07-10 15:38:00,
2013-07-10 11:43:00,89.3,72.6,29.97,North,6,5.0,5.0,58,0.00,,,0.00,Wunderground v.1.15,2013-07-10 15:43:00,
2013-07-10 11:48:00,89.7,73.0,29.96,ESE,104,0.0,5.0,58,0.00,,,0.00,Wunderground v.1.15,2013-07-10 15:48:00,
2013-07-10 11:53:00,89.9,72.6,29.96,WSW,254,0.0,0.0,57,0.00,,,0.00,Wunderground v.1.15,2013-07-10 15:53:00,
2013-07-10 11:58:00,90.1,72.8,29.96,North,354,0.0,6.0,57,0.00,,,0.00,Wunderground v.1.15,2013-07-10 15:58:00,
2013-07-10 12:04:00,90.5,72.7,29.96,NNW,342,0.0,6.0,56,0.00,,,0.00,Wunderground v.1.15,2013-07-10 16:04:00,
2013-07-10 12:09:00,91.0,72.6,29.96,ESE,112,0.0,6.0,55,0.00,,,0.00,Wunderground v.1.15,2013-07-10 16:09:00,
2013-07-10 12:14:00,91.4,73.0,29.96,NNW,329,0.0,1.0,55,0.00,,,0.00,Wunderground v.1.15,2013-07-10 16:14:00,
2013-07-10 12:19:00,92.1,74.1,29.97,North,356,0.0,8.0,56,0.00,,,0.00,Wunderground v.1.15,2013-07-10 16:19:00,
2013-07-10 12:24:00,92.5,74.5,29.97,WSW,256,0.0,6.0,56,0.00,,,0.00,Wunderground v.1.15,2013-07-10 16:24:00,
2013-07-10 12:29:00,92.5,74.0,29.97,WNW,285,1.0,8.0,55,0.00,,,0.00,Wunderground v.1.15,2013-07-10 16:29:00,
2013-07-10 12:34:00,92.3,73.8,29.97,NW,320,0.0,6.0,55,0.00,,,0.00,Wunderground v.1.15,2013-07-10 16:34:00,
2013-07-10 12:39:00,92.1,73.6,29.97,WSW,250,0.0,6.0,55,0.00,,,0.00,Wunderground v.1.15,2013-07-10 16:39:00,
2013-07-10 12:44:00,91.6,73.1,29.97,NW,323,0.0,7.0,55,0.00,,,0.00,Wunderground v.1.15,2013-07-10 16:44:00,
2013-07-10 12:49:00,91.0,73.1,29.97,West,278,0.0,7.0,56,0.00,,,0.00,Wunderground v.1.15,2013-07-10 16:49:00,
2013-07-10 12:54:00,90.7,73.4,29.97,North,352,0.0,5.0,57,0.00,,,0.00,Wunderground v.1.15,2013-07-10 16:54:00,
2013-07-10 12:59:00,90.1,73.3,29.97,West,277,4.0,6.0,58,0.00,,,0.00,Wunderground v.1.15,2013-07-10 16:59:00,
2013-07-10 13:04:00,89.7,73.0,29.96,West,263,0.0,2.0,58,0.00,,,0.00,Wunderground v.1.15,2013-07-10 17:04:00,
2013-07-10 13:09:00,89.5,73.3,29.96,NNW,342,0.0,2.0,59,0.00,,,0.00,Wunderground v.1.15,2013-07-10 17:09:00,
2013-07-10 13:14:00,89.7,73.5,29.96,West,271,6.0,8.0,59,0.00,,,0.00,Wunderground v.1.15,2013-07-10 17:14:00,
2013-07-10 13:19:00,89.7,73.5,29.96,NW,326,3.0,10.0,59,0.00,,,0.00,Wunderground v.1.15,2013-07-10 17:19:00,
2013-07-10 13:24:00,89.9,73.7,29.96,North,0,1.0,8.0,59,0.00,,,0.00,Wunderground v.1.15,2013-07-10 17:24:00,
2013-07-10 13:29:00,90.3,74.0,29.96,WNW,295,0.0,10.0,59,0.00,,,0.00,Wunderground v.1.15,2013-07-10 17:29:00,
2013-07-10 13:34:00,90.7,73.9,29.96,WNW,296,0.0,6.0,58,0.00,,,0.00,Wunderground v.1.15,2013-07-10 17:34:00,
2013-07-10 13:39:00,91.0,74.2,29.96,North,354,1.0,6.0,58,0.00,,,0.00,Wunderground v.1.15,2013-07-10 17:39:00,
2013-07-10 13:44:00,91.2,74.4,29.96,NE,34,0.0,8.0,58,0.00,,,0.00,Wunderground v.1.15,2013-07-10 17:44:00,
2013-07-10 13:49:00,91.2,74.9,29.95,WNW,292,3.0,8.0,59,0.00,,,0.00,Wunderground v.1.15,2013-07-10 17:49:00,
2013-07-10 13:54:00,91.2,73.8,29.95,North,356,2.0,6.0,57,0.00,,,0.00,Wunderground v.1.15,2013-07-10 17:54:00,
2013-07-10 13:59:00,91.4,74.0,29.95,WNW,296,2.0,10.0,57,0.00,,,0.00,Wunderground v.1.15,2013-07-10 17:59:00,
2013-07-10 14:04:00,91.2,73.8,29.94,West,270,0.0,5.0,57,0.00,,,0.00,Wunderground v.1.15,2013-07-10 18:04:00,
2013-07-10 14:09:00,91.2,73.8,29.94,NW,325,0.0,5.0,57,0.00,,,0.00,Wunderground v.1.15,2013-07-10 18:09:00,
2013-07-10 14:14:00,91.2,73.3,29.94,NW,306,0.0,4.0,56,0.00,,,0.00,Wunderground v.1.15,2013-07-10 18:14:00,
2013-07-10 14:19:00,91.4,73.5,29.93,North,3,0.0,4.0,56,0.00,,,0.00,Wunderground v.1.15,2013-07-10 18:19:00,
2013-07-10 14:24:00,91.8,73.3,29.93,West,268,0.0,6.0,55,0.00,,,0.00,Wunderground v.1.15,2013-07-10 18:24:00,
2013-07-10 14:29:00,92.1,73.6,29.93,WNW,284,2.0,6.0,55,0.00,,,0.00,Wunderground v.1.15,2013-07-10 18:29:00,
2013-07-10 14:34:00,92.1,73.6,29.92,NW,305,3.0,10.0,55,0.00,,,0.00,Wunderground v.1.15,2013-07-10 18:34:00,
2013-07-10 14:39:00,92.3,73.8,29.92,WNW,289,0.0,10.0,55,0.00,,,0.00,Wunderground v.1.15,2013-07-10 18:39:00,
2013-07-10 14:44:00,92.3,73.8,29.92,North,10,0.0,1.0,55,0.00,,,0.00,Wunderground v.1.15,2013-07-10 18:44:00,
2013-07-10 14:49:00,92.5,73.4,29.92,South,184,0.0,6.0,54,0.00,,,0.00,Wunderground v.1.15,2013-07-10 18:49:00,
2013-07-10 14:54:00,92.3,73.8,29.92,NW,315,0.0,8.0,55,0.00,,,0.00,Wunderground v.1.15,2013-07-10 18:54:00,
2013-07-10 14:59:00,92.5,74.0,29.92,NNW,335,0.0,8.0,55,0.00,,,0.00,Wunderground v.1.15,2013-07-10 18:59:00,
2013-07-10 15:04:00,92.3,73.2,29.91,WNW,294,0.0,7.0,54,0.00,,,0.00,Wunderground v.1.15,2013-07-10 19:04:00,
2013-07-10 15:09:00,92.3,73.2,29.91,North,0,0.0,8.0,54,0.00,,,0.00,Wunderground v.1.15,2013-07-10 19:09:00,
2013-07-10 15:14:00,92.1,73.1,29.91,North,0,0.0,11.0,54,0.00,,,0.00,Wunderground v.1.15,2013-07-10 19:14:00,
2013-07-10 15:19:00,91.8,72.8,29.90,West,260,1.0,1.0,54,0.00,,,0.00,Wunderground v.1.15,2013-07-10 19:19:00,
2013-07-10 15:24:00,91.8,72.8,29.90,North,8,0.0,11.0,54,0.00,,,0.00,Wunderground v.1.15,2013-07-10 19:24:00,
2013-07-10 15:29:00,91.6,73.1,29.90,NNW,335,0.0,1.0,55,0.00,,,0.00,Wunderground v.1.15,2013-07-10 19:29:00,
2013-07-10 15:34:00,91.8,72.8,29.90,West,268,2.0,5.0,54,0.00,,,0.00,Wunderground v.1.15,2013-07-10 19:34:00,
2013-07-10 15:39:00,91.8,73.3,29.90,WNW,299,5.0,5.0,55,0.00,,,0.00,Wunderground v.1.15,2013-07-10 19:39:00,
2013-07-10 15:45:00,91.4,73.0,29.90,West,264,0.0,10.0,55,0.00,,,0.00,Wunderground v.1.15,2013-07-10 19:45:00,
2013-07-10 15:50:00,91.2,72.8,29.89,West,264,0.0,1.0,55,0.00,,,0.00,Wunderground v.1.15,2013-07-10 19:50:00,
2013-07-10 15:55:00,91.0,72.6,29.89,West,281,0.0,13.0,55,0.00,,,0.00,Wunderground v.1.15,2013-07-10 19:55:00,
2013-07-10 16:00:00,91.0,72.6,29.89,WNW,291,0.0,1.0,55,0.00,,,0.00,Wunderground v.1.15,2013-07-10 20:00:00,
2013-07-10 16:05:00,91.0,72.6,29.89,NW,305,0.0,7.0,55,0.00,,,0.00,Wunderground v.1.15,2013-07-10 20:05:00,
2013-07-10 16:10:00,91.2,72.8,29.89,NNW,328,0.0,1.0,55,0.00,,,0.00,Wunderground v.1.15,2013-07-10 20:10:00,
2013-07-10 16:15:00,91.4,73.0,29.89,WNW,294,0.0,2.0,55,0.00,,,0.00,Wunderground v.1.15,2013-07-10 20:15:00,
2013-07-10 16:20:00,91.6,72.6,29.88,North,350,0.0,0.0,54,0.00,,,0.00,Wunderground v.1.15,2013-07-10 20:20:00,
2013-07-10 16:25:00,91.4,72.4,29.88,NNE,13,0.0,3.0,54,0.00,,,0.00,Wunderground v.1.15,2013-07-10 20:25:00,
2013-07-10 16:30:00,91.4,72.4,29.88,WSW,250,0.0,0.0,54,0.00,,,0.00,Wunderground v.1.15,2013-07-10 20:30:00,
2013-07-10 16:35:00,91.4,72.4,29.88,WNW,287,0.0,0.0,54,0.00,,,0.00,Wunderground v.1.15,2013-07-10 20:35:00,
2013-07-10 16:40:00,91.4,73.0,29.88,NNW,336,0.0,0.0,55,0.00,,,0.00,Wunderground v.1.15,2013-07-10 20:40:00,
2013-07-10 16:45:00,91.6,73.1,29.88,NW,312,0.0,6.0,55,0.00,,,0.00,Wunderground v.1.15,2013-07-10 20:45:00,
2013-07-10 16:50:00,91.4,72.4,29.87,WNW,287,2.0,2.0,54,0.00,,,0.00,Wunderground v.1.15,2013-07-10 20:50:00,
2013-07-10 16:55:00,91.2,72.2,29.87,NNW,328,0.0,5.0,54,0.00,,,0.00,Wunderground v.1.15,2013-07-10 20:55:00,
2013-07-10 17:00:00,90.7,71.8,29.87,North,359,1.0,1.0,54,0.00,,,0.00,Wunderground v.1.15,2013-07-10 21:00:00,
2013-07-10 17:05:00,90.5,71.6,29.87,SW,216,6.0,8.0,54,0.00,,,0.00,Wunderground v.1.15,2013-07-10 21:05:00,
2013-07-10 17:10:00,90.3,71.9,29.87,WNW,302,0.0,1.0,55,0.00,,,0.00,Wunderground v.1.15,2013-07-10 21:10:00,
2013-07-10 17:15:00,90.1,71.8,29.87,North,350,0.0,2.0,55,0.00,,,0.00,Wunderground v.1.15,2013-07-10 21:15:00,
2013-07-10 17:20:00,90.1,72.3,29.87,West,265,0.0,0.0,56,0.00,,,0.00,Wunderground v.1.15,2013-07-10 21:20:00,
2013-07-10 17:25:00,90.1,72.3,29.87,North,0,0.0,1.0,56,0.00,,,0.00,Wunderground v.1.15,2013-07-10 21:25:00,
2013-07-10 17:30:00,89.9,71.6,29.87,WNW,291,0.0,5.0,55,0.00,,,0.00,Wunderground v.1.15,2013-07-10 21:30:00,
2013-07-10 17:35:00,89.5,71.7,29.87,North,359,0.0,8.0,56,0.00,,,0.00,Wunderground v.1.15,2013-07-10 21:35:00,
2013-07-10 17:40:00,89.3,71.5,29.87,NW,320,0.0,0.0,56,0.00,,,0.00,Wunderground v.1.15,2013-07-10 21:40:00,
2013-07-10 17:45:00,89.0,71.8,29.86,North,357,0.0,1.0,57,0.00,,,0.00,Wunderground v.1.15,2013-07-10 21:45:00,
2013-07-10 17:50:00,88.8,71.6,29.86,WNW,302,0.0,0.0,57,0.00,,,0.00,Wunderground v.1.15,2013-07-10 21:50:00,
2013-07-10 17:55:00,88.6,71.4,29.86,North,349,0.0,7.0,57,0.00,,,0.00,Wunderground v.1.15,2013-07-10 21:55:00,
2013-07-10 18:00:00,88.2,71.6,29.86,NNE,30,0.0,0.0,58,0.00,,,0.00,Wunderground v.1.15,2013-07-10 22:00:00,
2013-07-10 18:05:00,88.0,71.4,29.86,West,274,0.0,5.0,58,0.00,,,0.00,Wunderground v.1.15,2013-07-10 22:05:00,
2013-07-10 18:11:00,87.8,71.7,29.86,North,352,0.0,0.0,59,0.00,,,0.00,Wunderground v.1.15,2013-07-10 22:11:00,
2013-07-10 18:16:00,87.8,71.7,29.86,NW,305,0.0,7.0,59,0.00,,,0.00,Wunderground v.1.15,2013-07-10 22:16:00,
2013-07-10 18:21:00,87.6,71.5,29.86,WSW,254,0.0,0.0,59,0.00,,,0.00,Wunderground v.1.15,2013-07-10 22:21:00,
2013-07-10 18:26:00,87.6,71.5,29.86,WSW,246,0.0,1.0,59,0.00,,,0.00,Wunderground v.1.15,2013-07-10 22:26:00,
2013-07-10 18:31:00,87.4,71.3,29.86,WSW,257,0.0,2.0,59,0.00,,,0.00,Wunderground v.1.15,2013-07-10 22:31:00,
2013-07-10 18:36:00,87.4,71.8,29.86,North,0,0.0,3.0,60,0.00,,,0.00,Wunderground v.1.15,2013-07-10 22:36:00,
2013-07-10 18:41:00,87.4,71.8,29.86,NNE,14,0.0,0.0,60,0.00,,,0.00,Wunderground v.1.15,2013-07-10 22:41:00,
2013-07-10 18:46:00,87.4,72.3,29.86,WNW,299,0.0,1.0,61,0.00,,,0.00,Wunderground v.1.15,2013-07-10 22:46:00,
2013-07-10 18:51:00,87.4,71.8,29.86,WSW,254,0.0,4.0,60,0.00,,,0.00,Wunderground v.1.15,2013-07-10 22:51:00,
2013-07-10 18:56:00,87.2,72.1,29.86,North,7,0.0,4.0,61,0.00,,,0.00,Wunderground v.1.15,2013-07-10 22:56:00,
2013-07-10 19:01:00,87.2,72.1,29.85,North,0,0.0,2.0,61,0.00,,,0.00,Wunderground v.1.15,2013-07-10 23:01:00,
2013-07-10 19:06:00,87.0,71.9,29.85,NNW,336,0.0,8.0,61,0.00,,,0.00,Wunderground v.1.15,2013-07-10 23:06:00,
2013-07-10 19:11:00,87.0,72.4,29.85,West,275,0.0,0.0,62,0.00,,,0.00,Wunderground v.1.15,2013-07-10 23:11:00,
2013-07-10 19:16:00,86.7,72.1,29.85,North,7,0.0,7.0,62,0.00,,,0.00,Wunderground v.1.15,2013-07-10 23:16:00,
2013-07-10 19:21:00,86.5,71.5,29.85,North,356,0.0,1.0,61,0.00,,,0.00,Wunderground v.1.15,2013-07-10 23:21:00,
2013-07-10 19:26:00,86.3,71.3,29.85,WNW,295,0.0,1.0,61,0.00,,,0.00,Wunderground v.1.15,2013-07-10 23:26:00,
2013-07-10 19:31:00,86.1,71.6,29.85,West,270,0.0,0.0,62,0.00,,,0.00,Wunderground v.1.15,2013-07-10 23:31:00,
2013-07-10 19:36:00,86.1,71.6,29.85,WNW,298,0.0,5.0,62,0.00,,,0.00,Wunderground v.1.15,2013-07-10 23:36:00,
2013-07-10 19:41:00,86.1,72.0,29.85,WSW,258,0.0,2.0,63,0.00,,,0.00,Wunderground v.1.15,2013-07-10 23:41:00,
2013-07-10 19:46:00,85.9,71.8,29.86,North,350,0.0,2.0,63,0.00,,,0.00,Wunderground v.1.15,2013-07-10 23:46:00,
2013-07-10 19:51:00,85.9,71.8,29.86,NW,312,0.0,0.0,63,0.00,,,0.00,Wunderground v.1.15,2013-07-10 23:51:00,
2013-07-10 19:56:00,85.7,71.7,29.86,NW,305,0.0,0.0,63,0.00,,,0.00,Wunderground v.1.15,2013-07-10 23:56:00,
2013-07-10 20:01:00,85.7,72.1,29.86,North,0,0.0,0.0,64,0.00,,,0.00,Wunderground v.1.15,2013-07-11 00:01:00,
2013-07-10 20:06:00,85.7,72.1,29.86,NW,312,0.0,0.0,64,0.00,,,0.00,Wunderground v.1.15,2013-07-11 00:06:00,
2013-07-10 20:11:00,85.7,72.1,29.86,West,260,0.0,0.0,64,0.00,,,0.00,Wunderground v.1.15,2013-07-11 00:11:00,
2013-07-10 20:16:00,85.5,71.9,29.86,West,275,0.0,0.0,64,0.00,,,0.00,Wunderground v.1.15,2013-07-11 00:16:00,
2013-07-10 20:21:00,85.5,71.9,29.86,North,0,0.0,0.0,64,0.00,,,0.00,Wunderground v.1.15,2013-07-11 00:21:00,
2013-07-10 20:26:00,85.3,71.7,29.86,NNW,346,0.0,0.0,64,0.00,,,0.00,Wunderground v.1.15,2013-07-11 00:26:00,
2013-07-10 20:31:00,85.3,71.7,29.87,NNW,337,0.0,0.0,64,0.00,,,0.00,Wunderground v.1.15,2013-07-11 00:31:00,
2013-07-10 20:36:00,84.9,71.4,29.87,SSE,164,0.0,6.0,64,0.00,,,0.00,Wunderground v.1.15,2013-07-11 00:36:00,
2013-07-10 20:41:00,84.0,70.5,29.87,SE,130,0.0,0.0,64,0.00,,,0.00,Wunderground v.1.15,2013-07-11 00:41:00,
2013-07-10 20:46:00,83.4,69.9,29.87,SE,130,0.0,0.0,64,0.00,,,0.00,Wunderground v.1.15,2013-07-11 00:46:00,
2013-07-10 20:52:00,83.0,70.0,29.87,NE,42,0.0,0.0,65,0.00,,,0.00,Wunderground v.1.15,2013-07-11 00:52:00,
2013-07-10 20:56:00,82.4,69.4,29.87,South,169,0.0,0.0,65,0.00,,,0.00,Wunderground v.1.15,2013-07-11 00:56:00,
2013-07-10 20:57:00,82.4,69.9,29.87,South,169,0.0,0.0,66,0.00,,,0.00,Wunderground v.1.15,2013-07-11 00:57:00,
2013-07-10 21:02:00,82.0,69.5,29.88,SE,137,0.0,5.0,66,0.00,,,0.00,Wunderground v.1.15,2013-07-11 01:02:00,
2013-07-10 21:07:00,81.6,69.6,29.88,ENE,73,0.0,5.0,67,0.00,,,0.00,Wunderground v.1.15,2013-07-11 01:07:00,
2013-07-10 21:12:00,81.4,69.8,29.88,ENE,75,2.0,11.0,68,0.00,,,0.00,Wunderground v.1.15,2013-07-11 01:12:00,
2013-07-10 21:17:00,81.1,70.0,29.90,ESE,112,0.0,11.0,69,0.00,,,0.00,Wunderground v.1.15,2013-07-11 01:17:00,
2013-07-10 21:22:00,80.7,69.6,29.90,East,88,1.0,3.0,69,0.00,,,0.00,Wunderground v.1.15,2013-07-11 01:22:00,
2013-07-10 21:27:00,79.9,69.2,29.90,ESE,113,0.0,4.0,70,0.00,,,0.00,Wunderground v.1.15,2013-07-11 01:27:00,
2013-07-10 21:32:00,79.6,69.8,29.89,North,0,0.0,2.0,72,1.10,,,0.02,Wunderground v.1.15,2013-07-11 01:32:00,
2013-07-10 21:37:00,79.2,69.8,29.89,NNW,337,0.0,3.0,73,0.81,,,0.12,Wunderground v.1.15,2013-07-11 01:37:00,
2013-07-10 21:42:00,78.8,69.8,29.89,North,8,0.0,6.0,74,0.26,,,0.15,Wunderground v.1.15,2013-07-11 01:42:00,
2013-07-10 21:47:00,78.5,69.9,29.91,North,359,0.0,6.0,75,0.10,,,0.16,Wunderground v.1.15,2013-07-11 01:47:00,
2013-07-10 21:52:00,78.1,69.9,29.91,North,359,0.0,2.0,76,0.10,,,0.16,Wunderground v.1.15,2013-07-11 01:52:00,
2013-07-10 21:57:00,77.9,69.7,29.91,North,359,0.0,2.0,76,0.06,,,0.16,Wunderground v.1.15,2013-07-11 01:57:00,
2013-07-10 22:02:00,77.7,69.5,29.92,North,359,0.0,0.0,76,0.04,,,0.16,Wunderground v.1.15,2013-07-11 02:02:00,
2013-07-10 22:08:00,77.6,69.8,29.92,North,359,0.0,1.0,77,0.00,,,0.16,Wunderground v.1.15,2013-07-11 02:08:00,
2013-07-10 22:13:00,77.4,69.6,29.92,North,359,0.0,1.0,77,0.00,,,0.17,Wunderground v.1.15,2013-07-11 02:13:00,
2013-07-10 22:18:00,77.2,69.8,29.92,North,359,0.0,2.0,78,0.00,,,0.17,Wunderground v.1.15,2013-07-11 02:18:00,
2013-07-10 22:23:00,77.0,69.6,29.92,North,359,0.0,2.0,78,0.05,,,0.18,Wunderground v.1.15,2013-07-11 02:23:00,
2013-07-10 22:28:00,77.0,70.0,29.92,North,357,0.0,2.0,79,0.05,,,0.18,Wunderground v.1.15,2013-07-11 02:28:00,
2013-07-10 22:33:00,76.8,69.8,29.92,NW,320,0.0,0.0,79,0.19,,,0.20,Wunderground v.1.15,2013-07-11 02:33:00,
2013-07-10 22:38:00,76.7,69.7,29.92,NW,320,0.0,0.0,79,0.14,,,0.21,Wunderground v.1.15,2013-07-11 02:38:00,
2013-07-10 22:43:00,76.5,69.9,29.92,NW,320,0.0,0.0,80,0.15,,,0.22,Wunderground v.1.15,2013-07-11 02:43:00,
2013-07-10 22:48:00,76.3,69.7,29.91,NW,320,0.0,0.0,80,0.13,,,0.23,Wunderground v.1.15,2013-07-11 02:48:00,
2013-07-10 22:53:00,76.1,69.5,29.91,NW,320,0.0,1.0,80,0.06,,,0.23,Wunderground v.1.15,2013-07-11 02:53:00,
2013-07-10 22:58:00,76.0,69.4,29.91,NW,320,0.0,1.0,80,0.04,,,0.23,Wunderground v.1.15,2013-07-11 02:58:00,
2013-07-10 23:03:00,75.8,69.6,29.91,NW,320,0.0,0.0,81,0.00,,,0.23,Wunderground v.1.15,2013-07-11 03:03:00,
2013-07-10 23:08:00,76.0,70.1,29.91,NW,320,0.0,0.0,82,0.00,,,0.23,Wunderground v.1.15,2013-07-11 03:08:00,
2013-07-10 23:13:00,76.1,70.2,29.91,NW,320,0.0,0.0,82,0.00,,,0.23,Wunderground v.1.15,2013-07-11 03:13:00,
2013-07-10 23:18:00,76.0,70.1,29.92,NW,320,0.0,0.0,82,0.00,,,0.24,Wunderground v.1.15,2013-07-11 03:18:00,
2013-07-10 23:23:00,76.0,70.5,29.92,NW,320,0.0,0.0,83,0.00,,,0.24,Wunderground v.1.15,2013-07-11 03:23:00,
2013-07-10 23:28:00,75.8,70.3,29.92,NW,320,0.0,0.0,83,0.00,,,0.24,Wunderground v.1.15,2013-07-11 03:28:00,
2013-07-10 23:33:00,76.0,70.5,29.92,NW,320,0.0,0.0,83,0.00,,,0.24,Wunderground v.1.15,2013-07-11 03:33:00,
2013-07-10 23:38:00,76.0,70.8,29.92,NW,320,0.0,0.0,84,0.00,,,0.25,Wunderground v.1.15,2013-07-11 03:38:00,
2013-07-10 23:43:00,76.0,70.5,29.92,NW,322,0.0,0.0,83,0.00,,,0.25,Wunderground v.1.15,2013-07-11 03:43:00,
2013-07-10 23:48:00,76.0,70.8,29.92,NW,320,0.0,0.0,84,0.00,,,0.25,Wunderground v.1.15,2013-07-11 03:48:00,
2013-07-10 23:53:00,76.0,70.8,29.92,NW,320,0.0,0.0,84,0.00,,,0.25,Wunderground v.1.15,2013-07-11 03:53:00,
2013-07-10 23:58:00,76.0,70.8,29.92,NW,320,0.0,0.0,84,0.00,,,0.25,Wunderground v.1.15,2013-07-11 03:58:00,